Rhinelander, WI

6:04 AM CDT on May 27, 2017 (GMT -0500)
Rhinelander-Oneida County

Weather History for KRHI - September, 2013

Change the Weather History Date:

Saturday, September 14, 2013

  Actual Average Record
Temperature  
Mean Temperature 54 °F 56 °F  
Max Temperature 69 °F 67 °F 90 °F (1927)
Min Temperature 38 °F 45 °F 27 °F (1923)
Degree Days  
Heating Degree Days 11 9  
Month to date heating degree days 85 100  
Since 1 July heating degree days 275 227  
Cooling Degree Days 0 1  
Month to date cooling degree days 15 14  
Year to date cooling degree days 279 255  
Growing Degree Days 2 (Base 50)    
Moisture  
Dew Point 44 °F    
Average Humidity 73    
Maximum Humidity 100    
Minimum Humidity 45    
Precipitation  
Precipitation 0.13 in 0.14 in 2.19 in (1941)
Month to date precipitation 0.39 1.92  
Year to date precipitation 27.23 22.80  
Snow  
Snow 0.00 in - T in (2011)
Month to date snowfall 0.0  
Since 1 July snowfall 0.0  
Since 1 September snowfall 0.0  
Snow Depth 0.00 in    
Sea Level Pressure  
Sea Level Pressure 30.08 in    
Wind  
Wind Speed 6 mph (SW)    
Max Wind Speed 16 mph    
Max Gust Speed 23 mph    
Visibility 9 miles    
Events Rain    
T = Trace of Precipitation, MM = Missing Value Source: NWS Daily Summary

Daily Weather History Graph

Daily Weather History Graph

Search for Another Location

Airport or City:

Trip Planner

Search our weather history database for the weather conditions in past years. The results will help you decide how hot, cold, wet, or windy it might be!

Date:

Astronomy

Sep. 14, 2013 Rise Set
Actual Time 6:35 AM CDT 7:10 PM CDT
Civil Twilight 6:05 AM CDT 7:40 PM CDT
Nautical Twilight 5:29 AM CDT 8:15 PM CDT
Astronomical Twilight 4:53 AM CDT 8:52 PM CDT
Moon 4:03 PM CDT (9/14) 12:54 AM CDT (9/14)
Length of Visible Light 13h 34m
Length of Day
12h 35m
Waxing Gibbous, 72% of the Moon is Illuminated
Sep 14
Waxing Gibbous
Sep 19
Full
Sep 26
Last Quarter
Oct 4
New
Oct 11
First Quarter

Hourly Weather History & Observations

Time (CDT) Temp. Windchill Dew Point Humidity Pressure Visibility Wind Dir Wind Speed Gust Speed Precip Events Conditions
12:42 AM 37.4 °F - 35.6 °F 93% 30.13 in 2.5 mi Calm Calm - N/A   Partly Cloudy
12:53 AM 37.9 °F - 37.0 °F 97% 30.16 in 1.5 mi Calm Calm - N/A   Partly Cloudy
1:00 AM 37.4 °F - 37.4 °F 100% 30.13 in 3.0 mi Calm Calm - N/A   Partly Cloudy
1:37 AM 41.0 °F - 39.2 °F 93% 30.13 in 2.5 mi Calm Calm - N/A   Clear
1:45 AM 42.8 °F - 41.0 °F 93% 30.13 in 10.0 mi Calm Calm - N/A   Clear
1:53 AM 41.0 °F - 39.9 °F 96% 30.15 in 10.0 mi Calm Calm - N/A   Clear
2:53 AM 42.1 °F - 39.9 °F 92% 30.14 in 10.0 mi Calm Calm - N/A   Clear
3:53 AM 41.0 °F 37.1 °F 37.9 °F 89% 30.13 in 10.0 mi SW 5.8 mph - N/A   Clear
4:53 AM 44.1 °F 39.5 °F 39.9 °F 85% 30.13 in 10.0 mi SW 8.1 mph - N/A   Clear
5:53 AM 43.0 °F 39.5 °F 39.9 °F 89% 30.14 in 10.0 mi SW 5.8 mph - N/A   Clear
6:53 AM 43.0 °F 41.3 °F 39.9 °F 89% 30.14 in 10.0 mi SSW 3.5 mph - N/A   Clear
7:53 AM 46.9 °F - 39.9 °F 77% 30.15 in 10.0 mi SW 8.1 mph - N/A   Clear
8:53 AM 51.1 °F - 42.1 °F 71% 30.14 in 10.0 mi SW 11.5 mph - N/A   Clear
9:53 AM 55.0 °F - 43.0 °F 64% 30.14 in 10.0 mi SW 9.2 mph 19.6 mph N/A   Clear
10:53 AM 60.1 °F - 44.1 °F 55% 30.11 in 10.0 mi SW 11.5 mph 19.6 mph N/A   Clear
11:53 AM 64.0 °F - 45.0 °F 50% 30.08 in 10.0 mi WSW 9.2 mph 23.0 mph N/A   Clear
12:53 PM 64.9 °F - 45.0 °F 48% 30.06 in 10.0 mi WSW 9.2 mph 23.0 mph N/A   Clear
1:53 PM 66.0 °F - 46.0 °F 48% 30.03 in 10.0 mi SW 11.5 mph 19.6 mph N/A   Clear
2:53 PM 66.0 °F - 45.0 °F 47% 30.01 in 10.0 mi SW 11.5 mph 23.0 mph N/A   Clear
3:53 PM 66.0 °F - 46.9 °F 50% 30.01 in 10.0 mi WSW 6.9 mph 16.1 mph N/A   Clear
4:53 PM 64.9 °F - 46.0 °F 50% 30.00 in 10.0 mi SW 5.8 mph - N/A   Clear
5:53 PM 63.0 °F - 48.9 °F 60% 30.01 in 10.0 mi SW 4.6 mph - N/A   Clear
6:53 PM 60.1 °F - 50.0 °F 69% 30.01 in 10.0 mi South 3.5 mph - N/A   Clear
7:53 PM 57.0 °F - 51.1 °F 81% 30.01 in 10.0 mi Calm Calm - N/A   Clear
8:53 PM 57.0 °F - 51.1 °F 81% 30.00 in 10.0 mi Calm Calm - N/A   Partly Cloudy
9:53 PM 57.9 °F - 48.9 °F 72% 30.00 in 10.0 mi SW 3.5 mph - N/A   Mostly Cloudy
10:53 PM 55.0 °F - 52.0 °F 89% 30.03 in 8.0 mi WSW 11.5 mph - 0.02 in Rain Light Rain
11:53 PM 54.0 °F - 53.1 °F 97% 30.01 in 6.0 mi West 3.5 mph - 0.10 in Rain Light Rain